Main page
METAR-TAF:

METAR-TAF

Airports :

Kinloss, Scotland

RAF Kinloss

latitude: 57-39N, longitude: 003-34W, elevation: 7 m

Current weather observation

The report was made 34 minutes ago, at 22:50 UTC
Wind 2 kt from the East/Southeast
Temperature 11°C
Humidity 87%
Pressure 1001 hPa

METAR: EGQK 172250Z AUTO 12002KT //// // ///////// 11/09 Q1001

Time: 00:24 (23:24 UTC)


TAF: missing

Weather observations and forecasts of more than 4000 airports (METAR and TAF reports).

The available stations are represented by yellow and red dots on the map.

Hover mouse over dot to see the name of the station.

Then click to see weather observations and forecasts.

To change the map : click on the green buttons with a black cross to zoom in, on the green button with a dash to zoom out, or on the green arrows for adjacent maps.


METAR-TAF: